| time (UTC) | temp F | wind direction | speed MPH | gust MPH | rain 1hr in | rain 24hr in | rain mn in | humidity % | barometer mb |
| 20260906183027 | 78 | 204 | 1.0 | 4.0 | 0.00 | 0.00 | 0.00 | 68 | 1024.3 |
| 20260906182522 | 78 | 184 | 1.0 | 3.0 | 0.00 | 0.00 | 0.00 | 68 | 1024.2 |
| 20260906182019 | 77 | 175 | 3.0 | 4.0 | 0.00 | 0.00 | 0.00 | 68 | 1024.2 |
| 20260906181514 | 78 | 170 | 2.0 | 4.0 | 0.00 | 0.00 | 0.00 | 68 | 1024.2 |
| 20260906181010 | 77 | 184 | 1.0 | 4.0 | 0.00 | 0.00 | 0.00 | 70 | 1024.2 |
| 20260906180510 | 77 | 137 | 2.0 | 2.0 | 0.00 | 0.00 | 0.00 | 70 | 1024.3 |
| 20260906180003 | 77 | 131 | 2.0 | 4.0 | 0.00 | 0.00 | 0.00 | 70 | 1024.3 |
| 20260906175457 | 77 | 189 | 2.0 | 4.0 | 0.00 | 0.00 | 0.00 | 71 | 1024.2 |
| 20260906174956 | 77 | 127 | 2.0 | 4.0 | 0.00 | 0.00 | 0.00 | 72 | 1024.4 |
| 20260906174455 | 76 | 175 | 2.0 | 6.0 | 0.00 | 0.00 | 0.00 | 72 | 1024.2 |
| 20260906173950 | 76 | 179 | 2.0 | 3.0 | 0.00 | 0.00 | 0.00 | 71 | 1024.6 |
| 20260906173445 | 77 | 182 | 2.0 | 3.0 | 0.00 | 0.00 | 0.00 | 71 | 1024.2 |
| 20260906172945 | 75 | 148 | 1.0 | 6.0 | 0.00 | 0.00 | 0.00 | 74 | 1024.3 |
| 20260906172441 | 76 | 203 | 2.0 | 7.0 | 0.00 | 0.00 | 0.00 | 73 | 1024.4 |
| 20260906171936 | 75 | 113 | 5.0 | 7.0 | 0.00 | 0.00 | 0.00 | 74 | 1024.4 |
| 20260906171430 | 74 | 144 | 2.0 | 6.0 | 0.00 | 0.00 | 0.00 | 76 | 1024.3 |
| 20260906170927 | 74 | 121 | 2.0 | 4.0 | 0.00 | 0.00 | 0.00 | 75 | 1024.3 |
| 20260906170423 | 74 | 155 | 2.0 | 3.0 | 0.00 | 0.00 | 0.00 | 74 | 1024.3 |
| 20260906165919 | 73 | 166 | 1.0 | 3.0 | 0.00 | 0.00 | 0.00 | 75 | 1024.4 |
| 20260906165418 | 73 | 134 | 2.0 | 4.0 | 0.00 | 0.00 | 0.00 | 75 | 1024.3 |
| 20260906164914 | 71 | 123 | 2.0 | 6.0 | 0.00 | 0.00 | 0.00 | 78 | 1024.5 |
| 20260906164412 | 72 | 179 | 4.0 | 10.0 | 0.00 | 0.00 | 0.00 | 76 | 1024.7 |
| 20260906163909 | 73 | 148 | 5.0 | 8.0 | 0.00 | 0.00 | 0.00 | 75 | 1024.6 |
| 20260906163404 | 73 | 205 | 2.0 | 4.0 | 0.00 | 0.00 | 0.00 | 75 | 1024.7 |
| 20260906162902 | 72 | 168 | 2.0 | 8.0 | 0.00 | 0.00 | 0.00 | 77 | 1024.6 |
| 20260906162401 | 71 | 171 | 4.0 | 7.0 | 0.00 | 0.00 | 0.00 | 77 | 1024.5 |
| 20260906161856 | 72 | 149 | 4.0 | 4.0 | 0.00 | 0.00 | 0.00 | 75 | 1024.4 |
| 20260906161350 | 71 | 76 | 2.0 | 4.0 | 0.00 | 0.00 | 0.00 | 76 | 1024.6 |
| 20260906160849 | 73 | 158 | 2.0 | 4.0 | 0.00 | 0.00 | 0.00 | 73 | 1024.5 |
| 20260906160343 | 72 | 220 | 2.0 | 3.0 | 0.00 | 0.00 | 0.00 | 75 | 1024.6 |
| 20260906155841 | 71 | 183 | 2.0 | 6.0 | 0.00 | 0.00 | 0.00 | 76 | 1024.6 |
| 20260906155335 | 71 | 112 | 1.0 | 6.0 | 0.00 | 0.00 | 0.00 | 78 | 1024.4 |
| 20260906154832 | 71 | 135 | 3.0 | 7.0 | 0.00 | 0.00 | 0.00 | 78 | 1024.4 |
| 20260906154326 | 70 | 183 | 2.0 | 4.0 | 0.00 | 0.00 | 0.00 | 79 | 1024.4 |
| 20260906153824 | 69 | 112 | 2.0 | 4.0 | 0.00 | 0.00 | 0.00 | 81 | 1024.4 |
| 20260906153318 | 70 | 186 | 4.0 | 7.0 | 0.00 | 0.00 | 0.00 | 80 | 1024.5 |
| 20260906152813 | 71 | 149 | 3.0 | 4.0 | 0.00 | 0.00 | 0.00 | 79 | 1024.4 |
| 20260906152308 | 70 | 96 | 2.0 | 2.0 | 0.00 | 0.00 | 0.00 | 79 | 1024.4 |
| 20260906151807 | 69 | 141 | 1.0 | 3.0 | 0.00 | 0.00 | 0.00 | 80 | 1024.4 |
| 20260906151303 | 68 | 133 | 3.0 | 4.0 | 0.00 | 0.00 | 0.00 | 81 | 1024.6 |
| 20260906150758 | 69 | 211 | 3.0 | 3.0 | 0.00 | 0.00 | 0.00 | 78 | 1024.7 |
| 20260906150254 | 68 | 113 | 2.0 | 8.0 | 0.00 | 0.00 | 0.00 | 80 | 1024.7 |
| 20260906145753 | 68 | 144 | 2.0 | 4.0 | 0.00 | 0.00 | 0.00 | 81 | 1024.8 |
| 20260906145251 | 68 | 100 | 4.0 | 6.0 | 0.00 | 0.00 | 0.00 | 80 | 1024.6 |
| 20260906144747 | 67 | 174 | 2.0 | 6.0 | 0.00 | 0.00 | 0.00 | 82 | 1024.6 |
| 20260906144242 | 67 | 117 | 3.0 | 4.0 | 0.00 | 0.00 | 0.00 | 81 | 1024.4 |
| 20260906143741 | 67 | 126 | 3.0 | 6.0 | 0.00 | 0.00 | 0.00 | 82 | 1024.5 |
| 20260906143239 | 67 | 86 | 3.0 | 3.0 | 0.00 | 0.00 | 0.00 | 82 | 1024.5 |
| 20260906142738 | 67 | 147 | 2.0 | 4.0 | 0.00 | 0.00 | 0.00 | 83 | 1024.4 |
| 20260906142234 | 66 | 256 | 2.0 | 3.0 | 0.00 | 0.00 | 0.00 | 85 | 1024.6 |
| 20260906141732 | 66 | 152 | 2.0 | 4.0 | 0.00 | 0.00 | 0.00 | 87 | 1024.6 |
| 20260906141228 | 66 | 162 | 2.0 | 4.0 | 0.00 | 0.00 | 0.00 | 86 | 1024.5 |
| 20260906140727 | 66 | 151 | 2.0 | 3.0 | 0.00 | 0.00 | 0.00 | 86 | 1024.7 |
| 20260906140222 | 65 | 105 | 2.0 | 3.0 | 0.00 | 0.00 | 0.00 | 88 | 1024.7 |
| 20260906135719 | 64 | 177 | 4.0 | 6.0 | 0.00 | 0.00 | 0.00 | 89 | 1024.7 |
| 20260906135215 | 65 | 154 | 3.0 | 8.0 | 0.00 | 0.00 | 0.00 | 89 | 1024.6 |
| 20260906134710 | 64 | 103 | 2.0 | 4.0 | 0.00 | 0.00 | 0.00 | 88 | 1024.7 |
| 20260906134205 | 64 | 167 | 4.0 | 4.0 | 0.00 | 0.00 | 0.00 | 88 | 1024.7 |
| 20260906133700 | 64 | 164 | 2.0 | 3.0 | 0.00 | 0.00 | 0.00 | 88 | 1024.6 |
| 20260906133155 | 64 | 128 | 3.0 | 8.0 | 0.00 | 0.00 | 0.00 | 89 | 1024.6 |
| 20260906132645 | 63 | 154 | 1.0 | 6.0 | 0.00 | 0.00 | 0.00 | 90 | 1024.6 |
| 20260906132141 | 63 | 182 | 3.0 | 6.0 | 0.00 | 0.00 | 0.00 | 91 | 1024.7 |
| 20260906131636 | 63 | 122 | 1.0 | 4.0 | 0.00 | 0.00 | 0.00 | 93 | 1024.8 |
| 20260906131131 | 62 | 150 | 3.0 | 3.0 | 0.00 | 0.00 | 0.00 | 93 | 1024.5 |
| 20260906130626 | 62 | 158 | 1.0 | 3.0 | 0.00 | 0.00 | 0.00 | 94 | 1024.5 |
| 20260906130121 | 62 | 198 | 1.0 | 3.0 | 0.00 | 0.00 | 0.00 | 94 | 1024.5 |
| 20260906125619 | 62 | 144 | 2.0 | 3.0 | 0.00 | 0.00 | 0.00 | 93 | 1024.3 |
| 20260906125117 | 62 | 115 | 1.0 | 4.0 | 0.00 | 0.00 | 0.00 | 93 | 1024.4 |
| 20260906124613 | 61 | 162 | 2.0 | 4.0 | 0.00 | 0.00 | 0.00 | 93 | 1024.3 |
| 20260906124108 | 60 | 144 | 3.0 | 4.0 | 0.00 | 0.00 | 0.00 | 98 | 1024.5 |
| 20260906123608 | 59 | 127 | 1.0 | 6.0 | 0.00 | 0.00 | 0.00 | 99 | 1024.3 |
| 20260906123103 | 59 | 147 | 2.0 | 3.0 | 0.00 | 0.00 | 0.00 | 99 | 1024.5 |
| 20260906122601 | 59 | 148 | 0.0 | 1.0 | 0.00 | 0.00 | 0.00 | 99 | 1024.3 |
| 20260906122058 | 59 | 197 | 0.0 | 2.0 | 0.00 | 0.00 | 0.00 | 99 | 1024.2 |
| 20260906121554 | 59 | 166 | 3.0 | 6.0 | 0.00 | 0.00 | 0.00 | 99 | 1024.2 |
| 20260906121050 | 59 | 139 | 2.0 | 3.0 | 0.00 | 0.00 | 0.00 | 99 | 1024.3 |
| 20260906120545 | 59 | 156 | 2.0 | 4.0 | 0.00 | 0.00 | 0.00 | 99 | 1024.3 |
| 20260906120043 | 59 | 136 | 3.0 | 4.0 | 0.00 | 0.00 | 0.00 | 99 | 1024.0 |
| 20260906115542 | 59 | 203 | 3.0 | 4.0 | 0.00 | 0.00 | 0.00 | 99 | 1023.9 |
| 20260906115038 | 59 | 161 | 1.0 | 3.0 | 0.00 | 0.00 | 0.00 | 99 | 1023.9 |
| 20260906114532 | 59 | 171 | 2.0 | 2.0 | 0.00 | 0.00 | 0.00 | 99 | 1023.9 |
| 20260906114028 | 59 | 202 | 0.0 | 2.0 | 0.00 | 0.00 | 0.00 | 99 | 1023.9 |
| 20260906113527 | 59 | 144 | 3.0 | 4.0 | 0.00 | 0.00 | 0.00 | 99 | 1023.8 |
| 20260906113022 | 59 | 52 | 1.0 | 4.0 | 0.00 | 0.00 | 0.00 | 99 | 1023.9 |
| 20260906112517 | 59 | 180 | 1.0 | 4.0 | 0.00 | 0.00 | 0.00 | 99 | 1023.9 |
| 20260906112013 | 59 | 28 | 1.0 | 4.0 | 0.00 | 0.00 | 0.00 | 99 | 1023.8 |
| 20260906111507 | 59 | 186 | 4.0 | 6.0 | 0.00 | 0.00 | 0.00 | 99 | 1023.9 |
| 20260906111002 | 59 | 149 | 3.0 | 4.0 | 0.00 | 0.00 | 0.00 | 99 | 1024.0 |
| 20260906110456 | 59 | 184 | 2.0 | 7.0 | 0.00 | 0.00 | 0.00 | 99 | 1024.0 |
| 20260906105955 | 59 | 170 | 2.0 | 6.0 | 0.00 | 0.00 | 0.00 | 99 | 1023.9 |
| 20260906105452 | 59 | 43 | 2.0 | 6.0 | 0.00 | 0.00 | 0.00 | 99 | 1023.7 |
| 20260906104948 | 59 | 213 | 1.0 | 2.0 | 0.00 | 0.00 | 0.00 | 99 | 1023.8 |
| 20260906104446 | 59 | 171 | 1.0 | 4.0 | 0.00 | 0.00 | 0.00 | 99 | 1023.6 |
| 20260906103945 | 60 | 135 | 2.0 | 4.0 | 0.00 | 0.00 | 0.00 | 99 | 1023.8 |
| 20260906103444 | 60 | 219 | 1.0 | 8.0 | 0.00 | 0.00 | 0.00 | 98 | 1023.5 |
| 20260906102939 | 60 | 106 | 1.0 | 3.0 | 0.00 | 0.00 | 0.00 | 97 | 1023.6 |
| 20260906102438 | 60 | 133 | 2.0 | 4.0 | 0.00 | 0.00 | 0.00 | 96 | 1023.7 |
| 20260906101933 | 59 | 223 | 1.0 | 4.0 | 0.00 | 0.00 | 0.00 | 98 | 1023.6 |
| 20260906101429 | 59 | 191 | 2.0 | 4.0 | 0.00 | 0.00 | 0.00 | 99 | 1023.7 |
| 20260906100924 | 59 | 143 | 1.0 | 2.0 | 0.00 | 0.00 | 0.00 | 99 | 1023.5 |
| 20260906100423 | 59 | 109 | 2.0 | 4.0 | 0.00 | 0.00 | 0.00 | 99 | 1023.7 |
| 20260906095918 | 59 | 193 | 1.0 | 3.0 | 0.00 | 0.00 | 0.00 | 99 | 1023.6 |
| 20260906095414 | 59 | 168 | 1.0 | 6.0 | 0.00 | 0.00 | 0.00 | 99 | 1023.6 |
| 20260906094913 | 59 | 208 | 1.0 | 4.0 | 0.00 | 0.00 | 0.00 | 99 | 1023.6 |
| 20260906094408 | 59 | 184 | 3.0 | 7.0 | 0.00 | 0.00 | 0.00 | 99 | 1023.6 |
| 20260906093904 | 60 | 165 | 1.0 | 4.0 | 0.00 | 0.00 | 0.00 | 99 | 1023.7 |
| 20260906093400 | 60 | 103 | 3.0 | 6.0 | 0.00 | 0.00 | 0.00 | 99 | 1023.6 |
| 20260906092854 | 60 | 96 | 4.0 | 6.0 | 0.00 | 0.00 | 0.00 | 98 | 1023.6 |
| 20260906092349 | 61 | 162 | 1.0 | 7.0 | 0.00 | 0.00 | 0.00 | 97 | 1023.5 |
| 20260906091844 | 61 | 302 | 4.0 | 7.0 | 0.00 | 0.00 | 0.00 | 95 | 1023.6 |
| 20260906091341 | 61 | 100 | 2.0 | 6.0 | 0.00 | 0.00 | 0.00 | 94 | 1023.6 |
| 20260906090837 | 61 | 170 | 4.0 | 6.0 | 0.00 | 0.00 | 0.00 | 95 | 1023.6 |
| 20260906090336 | 61 | 178 | 1.0 | 3.0 | 0.00 | 0.00 | 0.00 | 97 | 1023.6 |
| 20260906085830 | 61 | 156 | 2.0 | 3.0 | 0.00 | 0.00 | 0.00 | 96 | 1023.6 |
| 20260906085329 | 61 | 177 | 1.0 | 3.0 | 0.00 | 0.00 | 0.00 | 96 | 1023.7 |
| 20260906084824 | 61 | 141 | 2.0 | 6.0 | 0.00 | 0.00 | 0.00 | 96 | 1023.6 |
| 20260906084324 | 61 | 183 | 3.0 | 4.0 | 0.00 | 0.00 | 0.00 | 95 | 1023.7 |
| 20260906083819 | 61 | 211 | 2.0 | 3.0 | 0.00 | 0.00 | 0.00 | 95 | 1023.6 |
| 20260906083314 | 61 | 137 | 1.0 | 2.0 | 0.00 | 0.00 | 0.00 | 95 | 1023.6 |
| 20260906082808 | 61 | 147 | 2.0 | 3.0 | 0.00 | 0.00 | 0.00 | 94 | 1023.7 |
| 20260906082306 | 61 | 76 | 1.0 | 3.0 | 0.00 | 0.00 | 0.00 | 95 | 1023.7 |
| 20260906081759 | 61 | 200 | 0.0 | 4.0 | 0.00 | 0.00 | 0.00 | 93 | 1023.5 |
| 20260906081256 | 61 | 159 | 2.0 | 4.0 | 0.00 | 0.00 | 0.00 | 92 | 1023.4 |
| 20260906080752 | 62 | 179 | 1.0 | 3.0 | 0.00 | 0.00 | 0.00 | 92 | 1023.7 |
| 20260906080248 | 62 | 134 | 3.0 | 4.0 | 0.00 | 0.00 | 0.00 | 91 | 1023.3 |
| 20260906075747 | 62 | 143 | 3.0 | 4.0 | 0.00 | 0.00 | 0.00 | 91 | 1023.3 |
| 20260906075247 | 62 | 187 | 2.0 | 3.0 | 0.00 | 0.00 | 0.00 | 89 | 1023.3 |
| 20260906074743 | 62 | 156 | 1.0 | 4.0 | 0.00 | 0.00 | 0.00 | 90 | 1023.5 |
| 20260906074242 | 62 | 155 | 2.0 | 3.0 | 0.00 | 0.00 | 0.00 | 91 | 1023.4 |
| 20260906073742 | 62 | 169 | 1.0 | 3.0 | 0.00 | 0.00 | 0.00 | 90 | 1023.4 |
| 20260906073236 | 62 | 174 | 1.0 | 3.0 | 0.00 | 0.00 | 0.00 | 89 | 1023.6 |
| 20260906072732 | 62 | 123 | 2.0 | 2.0 | 0.00 | 0.00 | 0.00 | 89 | 1023.4 |
| 20260906072228 | 62 | 214 | 1.0 | 2.0 | 0.00 | 0.00 | 0.00 | 88 | 1023.5 |
| 20260906071723 | 62 | 169 | 0.0 | 2.0 | 0.00 | 0.00 | 0.00 | 90 | 1023.6 |
| 20260906071224 | 62 | 192 | 2.0 | 3.0 | 0.00 | 0.00 | 0.00 | 90 | 1023.5 |
| 20260906070720 | 62 | 115 | 2.0 | 3.0 | 0.00 | 0.00 | 0.00 | 90 | 1023.6 |
| 20260906070215 | 62 | 164 | 1.0 | 4.0 | 0.00 | 0.00 | 0.00 | 89 | 1023.6 |
| 20260906065715 | 62 | 195 | 0.0 | 3.0 | 0.00 | 0.00 | 0.00 | 88 | 1023.7 |
| 20260906065210 | 63 | 165 | 2.0 | 4.0 | 0.00 | 0.00 | 0.00 | 86 | 1023.6 |
| 20260906064706 | 63 | 127 | 1.0 | 3.0 | 0.00 | 0.00 | 0.00 | 84 | 1023.8 |
| 20260906064201 | 63 | 197 | 1.0 | 3.0 | 0.00 | 0.00 | 0.00 | 83 | 1023.6 |
| 20260906063656 | 63 | 96 | 3.0 | 4.0 | 0.00 | 0.00 | 0.00 | 82 | 1023.5 |
| 20260906063152 | 63 | 44 | 1.0 | 2.0 | 0.00 | 0.00 | 0.00 | 82 | 1023.5 |
| 20260906062648 | 63 | 164 | 1.0 | 2.0 | 0.00 | 0.00 | 0.00 | 82 | 1023.3 |
| 20260906062146 | 64 | 156 | 3.0 | 4.0 | 0.00 | 0.00 | 0.00 | 79 | 1023.4 |
| 20260906061643 | 64 | 166 | 3.0 | 4.0 | 0.00 | 0.00 | 0.00 | 79 | 1023.3 |
| 20260906061142 | 64 | 179 | 3.0 | 6.0 | 0.00 | 0.00 | 0.00 | 79 | 1023.3 |
| 20260906060639 | 64 | 168 | 1.0 | 3.0 | 0.00 | 0.00 | 0.00 | 79 | 1023.3 |
| 20260906060136 | 64 | 157 | 2.0 | 4.0 | 0.00 | 0.00 | 0.00 | 79 | 1023.2 |
| 20260906055631 | 64 | 197 | 1.0 | 3.0 | 0.00 | 0.00 | 0.00 | 81 | 1023.2 |
| 20260906055126 | 64 | 154 | 2.0 | 4.0 | 0.00 | 0.00 | 0.00 | 82 | 1023.3 |
| 20260906054621 | 63 | 182 | 5.0 | 7.0 | 0.00 | 0.00 | 0.00 | 84 | 1023.1 |
| 20260906054116 | 63 | 204 | 1.0 | 4.0 | 0.00 | 0.00 | 0.00 | 85 | 1023.2 |
| 20260906053613 | 63 | 123 | 3.0 | 4.0 | 0.00 | 0.00 | 0.00 | 86 | 1023.0 |
| 20260906053108 | 63 | 92 | 2.0 | 4.0 | 0.00 | 0.00 | 0.00 | 87 | 1023.0 |
| 20260906052604 | 63 | 205 | 2.0 | 4.0 | 0.00 | 0.00 | 0.00 | 87 | 1023.1 |
| 20260906052100 | 63 | 135 | 1.0 | 6.0 | 0.00 | 0.00 | 0.00 | 86 | 1023.1 |
| 20260906051556 | 64 | 165 | 3.0 | 4.0 | 0.00 | 0.00 | 0.00 | 86 | 1023.0 |
| 20260906051051 | 64 | 151 | 3.0 | 3.0 | 0.00 | 0.00 | 0.00 | 85 | 1023.0 |
| 20260906050546 | 64 | 114 | 2.0 | 7.0 | 0.00 | 0.00 | 0.00 | 85 | 1023.0 |
| 20260906050041 | 63 | 139 | 2.0 | 6.0 | 0.00 | 0.00 | 0.00 | 87 | 1022.9 |
| 20260906045539 | 64 | 154 | 2.0 | 4.0 | 0.00 | 0.00 | 0.00 | 87 | 1023.0 |
| 20260906045035 | 64 | 189 | 2.0 | 4.0 | 0.00 | 0.00 | 0.00 | 87 | 1022.8 |
| 20260906044531 | 64 | 106 | 2.0 | 4.0 | 0.00 | 0.00 | 0.00 | 87 | 1022.8 |
| 20260906044026 | 63 | 145 | 2.0 | 7.0 | 0.00 | 0.00 | 0.00 | 87 | 1022.9 |
| 20260906043521 | 63 | 167 | 2.0 | 4.0 | 0.00 | 0.00 | 0.00 | 89 | 1023.0 |
| 20260906043018 | 63 | 126 | 2.0 | 8.0 | 0.00 | 0.00 | 0.00 | 89 | 1023.0 |
| 20260906042516 | 63 | 153 | 2.0 | 3.0 | 0.00 | 0.00 | 0.00 | 90 | 1023.0 |
| 20260906042011 | 63 | 176 | 1.0 | 4.0 | 0.00 | 0.00 | 0.00 | 90 | 1022.9 |
| 20260906041508 | 63 | 148 | 2.0 | 3.0 | 0.00 | 0.00 | 0.00 | 90 | 1023.1 |
| 20260906041007 | 63 | 164 | 2.0 | 4.0 | 0.00 | 0.00 | 0.00 | 91 | 1022.8 |
| 20260906040502 | 63 | 184 | 1.0 | 6.0 | 0.00 | 0.00 | 0.00 | 92 | 1023.0 |
| 20260906035957 | 63 | 190 | 2.0 | 4.0 | 0.00 | 0.00 | 0.00 | 93 | 1022.9 |
| 20260906035453 | 63 | 156 | 2.0 | 7.0 | 0.00 | 0.00 | 0.00 | 93 | 1023.0 |
| 20260906034949 | 63 | 112 | 2.0 | 6.0 | 0.00 | 0.00 | 0.00 | 94 | 1022.8 |
| 20260906034449 | 63 | 182 | 1.0 | 7.0 | 0.00 | 0.00 | 0.00 | 95 | 1022.9 |
| 20260906033944 | 63 | 184 | 1.0 | 6.0 | 0.00 | 0.00 | 0.00 | 96 | 1022.8 |
| 20260906033444 | 63 | 179 | 2.0 | 6.0 | 0.00 | 0.00 | 0.00 | 97 | 1022.9 |
| 20260906032940 | 63 | 102 | 4.0 | 6.0 | 0.00 | 0.00 | 0.00 | 98 | 1022.8 |
| 20260906032437 | 63 | 158 | 3.0 | 4.0 | 0.00 | 0.00 | 0.00 | 98 | 1022.7 |
| 20260906031936 | 63 | 79 | 3.0 | 6.0 | 0.00 | 0.00 | 0.00 | 98 | 1022.8 |
| 20260906031432 | 63 | 173 | 2.0 | 3.0 | 0.00 | 0.00 | 0.00 | 98 | 1022.7 |
| 20260906030927 | 63 | 204 | 4.0 | 6.0 | 0.00 | 0.00 | 0.00 | 98 | 1022.8 |
| 20260906030422 | 63 | 76 | 3.0 | 6.0 | 0.00 | 0.00 | 0.00 | 97 | 1022.7 |
| 20260906025916 | 63 | 104 | 3.0 | 6.0 | 0.00 | 0.00 | 0.00 | 97 | 1022.7 |
| 20260906025410 | 63 | 143 | 4.0 | 9.0 | 0.00 | 0.00 | 0.00 | 96 | 1022.6 |
| 20260906024909 | 63 | 148 | 2.0 | 4.0 | 0.00 | 0.00 | 0.00 | 96 | 1022.6 |
| 20260906024408 | 63 | 164 | 3.0 | 9.0 | 0.00 | 0.00 | 0.00 | 95 | 1022.8 |
| 20260906023904 | 63 | 122 | 3.0 | 4.0 | 0.00 | 0.00 | 0.00 | 94 | 1022.7 |
| 20260906023400 | 64 | 173 | 2.0 | 7.0 | 0.00 | 0.00 | 0.00 | 93 | 1022.9 |
| 20260906022854 | 64 | 104 | 2.0 | 6.0 | 0.00 | 0.00 | 0.00 | 93 | 1022.7 |
| 20260906022349 | 64 | 111 | 4.0 | 6.0 | 0.00 | 0.00 | 0.00 | 92 | 1022.6 |
| 20260906021846 | 64 | 140 | 1.0 | 6.0 | 0.00 | 0.00 | 0.00 | 90 | 1022.6 |
| 20260906021345 | 64 | 149 | 2.0 | 4.0 | 0.00 | 0.00 | 0.00 | 89 | 1022.7 |
| 20260906020840 | 64 | 90 | 1.0 | 7.0 | 0.00 | 0.00 | 0.00 | 87 | 1022.6 |
| 20260906020339 | 64 | 122 | 2.0 | 4.0 | 0.00 | 0.00 | 0.00 | 86 | 1022.8 |
| 20260906015834 | 64 | 182 | 1.0 | 4.0 | 0.00 | 0.00 | 0.00 | 84 | 1022.7 |
| 20260906015333 | 65 | 86 | 2.0 | 4.0 | 0.00 | 0.00 | 0.00 | 83 | 1022.8 |
| 20260906014832 | 65 | 100 | 5.0 | 8.0 | 0.00 | 0.00 | 0.00 | 82 | 1022.4 |
| 20260906014322 | 65 | 195 | 2.0 | 3.0 | 0.00 | 0.00 | 0.00 | 82 | 1022.6 |
| 20260906013818 | 65 | 127 | 3.0 | 6.0 | 0.00 | 0.00 | 0.00 | 81 | 1022.5 |
| 20260906013313 | 65 | 180 | 3.0 | 8.0 | 0.00 | 0.00 | 0.00 | 81 | 1022.5 |
| 20260906012809 | 65 | 100 | 2.0 | 3.0 | 0.00 | 0.00 | 0.00 | 81 | 1022.6 |
| 20260906012309 | 65 | 116 | 2.0 | 4.0 | 0.00 | 0.00 | 0.00 | 80 | 1022.5 |
| 20260906011804 | 65 | 174 | 3.0 | 6.0 | 0.00 | 0.00 | 0.00 | 80 | 1022.5 |
| 20260906011304 | 66 | 109 | 2.0 | 4.0 | 0.00 | 0.00 | 0.00 | 79 | 1022.5 |
| 20260906010800 | 66 | 136 | 1.0 | 4.0 | 0.00 | 0.00 | 0.00 | 79 | 1022.4 |
| 20260906010256 | 66 | 139 | 2.0 | 6.0 | 0.00 | 0.00 | 0.00 | 80 | 1022.3 |
| 20260906005751 | 66 | 119 | 2.0 | 4.0 | 0.00 | 0.00 | 0.00 | 81 | 1022.4 |
| 20260906005249 | 66 | 115 | 2.0 | 3.0 | 0.00 | 0.00 | 0.00 | 81 | 1022.4 |
| 20260906004743 | 66 | 174 | 1.0 | 6.0 | 0.00 | 0.00 | 0.00 | 80 | 1022.3 |
| 20260906004239 | 66 | 188 | 2.0 | 4.0 | 0.00 | 0.00 | 0.00 | 79 | 1022.6 |
| 20260906003738 | 66 | 187 | 0.0 | 2.0 | 0.00 | 0.00 | 0.00 | 79 | 1022.3 |
| 20260906003234 | 67 | 167 | 2.0 | 4.0 | 0.00 | 0.00 | 0.00 | 78 | 1022.6 |
| 20260906002729 | 67 | 160 | 3.0 | 3.0 | 0.00 | 0.00 | 0.00 | 77 | 1022.5 |
| 20260906002228 | 67 | 114 | 1.0 | 3.0 | 0.00 | 0.00 | 0.00 | 76 | 1022.6 |
| 20260906001724 | 68 | 126 | 1.0 | 3.0 | 0.00 | 0.00 | 0.00 | 76 | 1022.4 |
| 20260906001219 | 68 | 155 | 2.0 | 3.0 | 0.00 | 0.00 | 0.00 | 75 | 1022.4 |
| 20260906000714 | 68 | 105 | 2.0 | 2.0 | 0.00 | 0.00 | 0.00 | 74 | 1022.5 |
| 20260906000212 | 69 | 124 | 1.0 | 3.0 | 0.00 | 0.00 | 0.00 | 73 | 1022.5 |
| 20260905235709 | 69 | 147 | 1.0 | 3.0 | 0.00 | 0.00 | 0.00 | 72 | 1022.6 |
| 20260905235204 | 70 | 183 | 2.0 | 7.0 | 0.00 | 0.00 | 0.00 | 71 | 1022.5 |
| 20260905234659 | 70 | 72 | 1.0 | 2.0 | 0.00 | 0.00 | 0.00 | 71 | 1022.7 |
| 20260905234154 | 70 | 165 | 2.0 | 7.0 | 0.00 | 0.00 | 0.00 | 70 | 1022.7 |
| 20260905233649 | 71 | 81 | 2.0 | 7.0 | 0.00 | 0.00 | 0.00 | 69 | 1022.5 |
| 20260905233148 | 71 | 196 | 2.0 | 3.0 | 0.00 | 0.00 | 0.00 | 69 | 1022.5 |
| 20260905232644 | 71 | 155 | 2.0 | 3.0 | 0.00 | 0.00 | 0.00 | 69 | 1022.6 |
| 20260905232139 | 71 | 171 | 4.0 | 7.0 | 0.00 | 0.00 | 0.00 | 68 | 1022.4 |
| 20260905231634 | 72 | 156 | 1.0 | 9.0 | 0.00 | 0.00 | 0.00 | 68 | 1022.6 |
| 20260905231131 | 72 | 165 | 3.0 | 4.0 | 0.00 | 0.00 | 0.00 | 67 | 1022.6 |
| 20260905230627 | 72 | 151 | 1.0 | 3.0 | 0.00 | 0.00 | 0.00 | 67 | 1022.5 |
| 20260905230124 | 73 | 104 | 5.0 | 6.0 | 0.00 | 0.00 | 0.00 | 66 | 1022.5 |
| 20260905225618 | 73 | 117 | 1.0 | 6.0 | 0.00 | 0.00 | 0.00 | 64 | 1022.6 |
| 20260905225113 | 74 | 74 | 3.0 | 4.0 | 0.00 | 0.00 | 0.00 | 64 | 1022.6 |
| 20260905224608 | 74 | 99 | 3.0 | 3.0 | 0.00 | 0.00 | 0.00 | 64 | 1022.8 |
| 20260905224107 | 74 | 66 | 3.0 | 8.0 | 0.00 | 0.00 | 0.00 | 65 | 1022.6 |
| 20260905223604 | 74 | 118 | 4.0 | 7.0 | 0.00 | 0.00 | 0.00 | 63 | 1022.7 |
| 20260905223100 | 74 | 178 | 4.0 | 7.0 | 0.00 | 0.00 | 0.00 | 62 | 1022.7 |
| 20260905222600 | 74 | 157 | 2.0 | 4.0 | 0.00 | 0.00 | 0.00 | 63 | 1022.9 |
| 20260905222055 | 75 | 116 | 4.0 | 6.0 | 0.00 | 0.00 | 0.00 | 63 | 1022.7 |
| 20260905221551 | 75 | 114 | 2.0 | 4.0 | 0.00 | 0.00 | 0.00 | 61 | 1022.3 |
| 20260905221047 | 75 | 167 | 2.0 | 6.0 | 0.00 | 0.00 | 0.00 | 62 | 1022.3 |
| 20260905220543 | 75 | 176 | 2.0 | 6.0 | 0.00 | 0.00 | 0.00 | 61 | 1022.2 |
| 20260905220039 | 76 | 176 | 2.0 | 3.0 | 0.00 | 0.00 | 0.00 | 61 | 1022.6 |
| 20260905215538 | 75 | 185 | 2.0 | 3.0 | 0.00 | 0.00 | 0.00 | 61 | 1022.4 |
| 20260905215034 | 76 | 177 | 1.0 | 3.0 | 0.00 | 0.00 | 0.00 | 60 | 1022.3 |
| 20260905214530 | 76 | 73 | 1.0 | 4.0 | 0.00 | 0.00 | 0.00 | 59 | 1022.6 |
| 20260905214025 | 76 | 124 | 4.0 | 7.0 | 0.00 | 0.00 | 0.00 | 61 | 1022.6 |
| 20260905213520 | 76 | 161 | 1.0 | 7.0 | 0.00 | 0.00 | 0.00 | 61 | 1022.3 |
| 20260905213016 | 77 | 225 | 1.0 | 3.0 | 0.00 | 0.00 | 0.00 | 60 | 1022.3 |
| 20260905212510 | 76 | 110 | 3.0 | 4.0 | 0.00 | 0.00 | 0.00 | 59 | 1022.2 |
| 20260905212010 | 77 | 164 | 3.0 | 4.0 | 0.00 | 0.00 | 0.00 | 58 | 1022.3 |
| 20260905211505 | 76 | 98 | 2.0 | 3.0 | 0.00 | 0.00 | 0.00 | 59 | 1022.4 |
| 20260905211001 | 76 | 83 | 2.0 | 2.0 | 0.00 | 0.00 | 0.00 | 59 | 1022.4 |
| 20260905210456 | 76 | 174 | 2.0 | 6.0 | 0.00 | 0.00 | 0.00 | 60 | 1022.3 |
| 20260905205955 | 76 | 73 | 2.0 | 3.0 | 0.00 | 0.00 | 0.00 | 60 | 1022.4 |
| 20260905205450 | 77 | 93 | 1.0 | 2.0 | 0.00 | 0.00 | 0.00 | 59 | 1022.6 |
| 20260905204949 | 76 | 109 | 3.0 | 4.0 | 0.00 | 0.00 | 0.00 | 59 | 1022.6 |
| 20260905204440 | 76 | 129 | 1.0 | 7.0 | 0.00 | 0.00 | 0.00 | 58 | 1022.6 |
| 20260905203939 | 76 | 175 | 2.0 | 3.0 | 0.00 | 0.00 | 0.00 | 58 | 1022.7 |
| 20260905203434 | 77 | 252 | 2.0 | 2.0 | 0.00 | 0.00 | 0.00 | 57 | 1022.6 |
| 20260905202930 | 77 | 159 | 3.0 | 7.0 | 0.00 | 0.00 | 0.00 | 59 | 1022.6 |
| 20260905202425 | 77 | 121 | 4.0 | 4.0 | 0.00 | 0.00 | 0.00 | 58 | 1022.8 |
| 20260905201920 | 77 | 197 | 1.0 | 2.0 | 0.00 | 0.00 | 0.00 | 60 | 1022.7 |
| 20260905201416 | 77 | 135 | 1.0 | 4.0 | 0.00 | 0.00 | 0.00 | 58 | 1022.6 |
| 20260905200915 | 77 | 154 | 1.0 | 3.0 | 0.00 | 0.00 | 0.00 | 58 | 1022.7 |
| 20260905200411 | 77 | 189 | 2.0 | 2.0 | 0.00 | 0.00 | 0.00 | 59 | 1022.7 |
| 20260905195909 | 77 | 94 | 3.0 | 6.0 | 0.00 | 0.00 | 0.00 | 59 | 1022.4 |
| 20260905195405 | 76 | 165 | 2.0 | 4.0 | 0.00 | 0.00 | 0.00 | 59 | 1022.3 |
| 20260905194900 | 77 | 185 | 4.0 | 6.0 | 0.00 | 0.00 | 0.00 | 59 | 1022.5 |
| 20260905194359 | 77 | 91 | 1.0 | 6.0 | 0.00 | 0.00 | 0.00 | 60 | 1022.5 |
| 20260905193854 | 77 | 212 | 3.0 | 3.0 | 0.00 | 0.00 | 0.00 | 61 | 1022.4 |
| 20260905193349 | 76 | 187 | 1.0 | 4.0 | 0.00 | 0.00 | 0.00 | 60 | 1022.4 |
| 20260905192844 | 76 | 115 | 2.0 | 6.0 | 0.00 | 0.00 | 0.00 | 61 | 1022.6 |
| 20260905192340 | 77 | 191 | 3.0 | 4.0 | 0.00 | 0.00 | 0.00 | 61 | 1022.7 |
| 20260905191839 | 76 | 222 | 4.0 | 7.0 | 0.00 | 0.00 | 0.00 | 63 | 1022.8 |
| 20260905191338 | 77 | 101 | 2.0 | 3.0 | 0.00 | 0.00 | 0.00 | 62 | 1022.9 |
| 20260905190837 | 76 | 103 | 1.0 | 1.0 | 0.00 | 0.00 | 0.00 | 63 | 1022.8 |
| 20260905190336 | 76 | 213 | 4.0 | 8.0 | 0.00 | 0.00 | 0.00 | 63 | 1022.8 |
| 20260905185835 | 76 | 202 | 2.0 | 3.0 | 0.00 | 0.00 | 0.00 | 63 | 1022.9 |
| 20260905185330 | 76 | 197 | 1.0 | 6.0 | 0.00 | 0.00 | 0.00 | 65 | 1022.8 |
| 20260905184824 | 76 | 169 | 1.0 | 1.0 | 0.00 | 0.00 | 0.00 | 65 | 1022.7 |
| 20260905184323 | 77 | 167 | 1.0 | 2.0 | 0.00 | 0.00 | 0.00 | 64 | 1022.9 |
| 20260905183821 | 76 | 193 | 1.0 | 3.0 | 0.00 | 0.00 | 0.00 | 64 | 1022.8 |